Location: Bazinghen
(50.8246°N, 1.6616°E)
Time: 18:09:53
(UTC+00:00)

Cosmos 407 Rocket - Pass Details

Date: 09 April 2020
Orbit: 743 x 787 km, 74.1° (Epoch: 28 May)

Event Time Altitude Azimuth Distance (km) Brightness Sun altitude
Rises 19:03:34 0° 181° (S) 3,185 6.5 -4.4°
Reaches altitude 10° 19:06:01 10° 175° (S) 2,261 5.7 -4.8°
Maximum altitude 19:10:48 42° 105° (ESE) 1,057 3.8 -5.5°
Drops below altitude 10° 19:15:37 10° 36° (NE) 2,268 5.8 -6.2°
Sets 19:18:04 0° 29° (NNE) 3,196 6.6 -6.6°
